Abingdon, VA

4:24 PM EDT on April 28, 2017 (GMT -0400)
Virginia Highlands

Weather History for KVJI - October, 2012

Change the Weather History Date:

Saturday, October 13, 2012

  Actual Average (KTRI) Record (KTRI)
Temperature  
Mean Temperature 57 °F -  
Max Temperature 70 °F 71 °F 86 °F (1954)
Min Temperature 44 °F 44 °F 28 °F (1988)
Degree Days  
Heating Degree Days 8    
Growing Degree Days 7 (Base 50)    
Moisture  
Dew Point 42 °F    
Average Humidity 62    
Maximum Humidity 85    
Minimum Humidity 39    
Precipitation  
Precipitation 0.00 in - - ()
Sea Level Pressure  
Sea Level Pressure 30.33 in    
Wind  
Wind Speed 6 mph (East)    
Max Wind Speed 15 mph    
Max Gust Speed 17 mph    
Visibility 10 miles    
Events      
Averages and records for this station are not official NWS values.
T = Trace of Precipitation, MM = Missing Value Source: NWS Daily Summary

Daily Weather History Graph

Daily Weather History Graph

Search for Another Location

Airport or City:

Trip Planner

Search our weather history database for the weather conditions in past years. The results will help you decide how hot, cold, wet, or windy it might be!

Date:

Astronomy

Oct. 13, 2012 Rise Set
Actual Time 7:34 AM EDT 6:53 PM EDT
Civil Twilight 7:08 AM EDT 7:19 PM EDT
Nautical Twilight 6:38 AM EDT 7:49 PM EDT
Astronomical Twilight 6:08 AM EDT 8:19 PM EDT
Moon 5:25 AM EDT (10/13) 5:35 PM EDT (10/13)
Length of Visible Light 12h 11m
Length of Day
11h 19m
Waning Crescent, 5% of the Moon is Illuminated
Oct 13
Waning Crescent
Oct 15
New
Oct 21
First Quarter
Oct 29
Full
Nov 6
Last Quarter

Hourly Weather History & Observations

Time (EDT) Temp. Windchill Dew Point Humidity Pressure Visibility Wind Dir Wind Speed Gust Speed Precip Events Conditions
12:15 AM 45.9 °F 43.6 °F 40.6 °F 82% 30.35 in 10.0 mi ESE 4.6 mph - N/A   Clear
12:35 AM 45.7 °F 42.7 °F 40.6 °F 83% 30.35 in 10.0 mi East 5.8 mph - N/A   Clear
1:15 AM 48.4 °F - 42.1 °F 79% 30.34 in 10.0 mi East 6.9 mph - N/A   Clear
1:35 AM 46.9 °F - 41.7 °F 82% 30.34 in 10.0 mi East 4.6 mph - N/A   Clear
1:55 AM 45.7 °F 43.4 °F 40.5 °F 82% 30.34 in 10.0 mi ESE 4.6 mph - N/A   Clear
2:15 AM 44.6 °F 41.4 °F 40.3 °F 85% 30.34 in 10.0 mi East 5.8 mph - N/A   Clear
2:55 AM 45.1 °F 41.4 °F 40.5 °F 84% 30.34 in 10.0 mi East 6.9 mph - N/A   Clear
3:15 AM 45.5 °F 44.2 °F 40.1 °F 81% 30.33 in 10.0 mi ESE 3.5 mph - N/A   Clear
3:35 AM 44.4 °F 42.0 °F 39.0 °F 81% 30.33 in 10.0 mi East 4.6 mph - N/A   Clear
4:35 AM 45.1 °F - 38.3 °F 77% 30.33 in 10.0 mi Calm Calm - N/A   Clear
4:55 AM 45.3 °F 40.1 °F 38.5 °F 77% 30.34 in 10.0 mi East 10.4 mph - N/A   Clear
5:15 AM 46.8 °F - 38.3 °F 72% 30.35 in 10.0 mi East 9.2 mph - N/A   Clear
5:35 AM 46.8 °F - 38.3 °F 72% 30.35 in 10.0 mi East 8.1 mph - N/A   Clear
5:55 AM 46.8 °F - 38.3 °F 72% 30.35 in 10.0 mi East 8.1 mph - N/A   Clear
6:15 AM 46.8 °F - 38.5 °F 73% 30.36 in 10.0 mi East 10.4 mph - N/A   Clear
6:35 AM 46.4 °F 42.4 °F 38.5 °F 74% 30.37 in 10.0 mi East 8.1 mph - N/A   Clear
6:55 AM 46.6 °F - 38.7 °F 74% 30.37 in 10.0 mi East 8.1 mph - N/A   Clear
7:15 AM 46.8 °F - 38.7 °F 73% 30.38 in 10.0 mi East 9.2 mph - N/A   Clear
7:35 AM 46.0 °F 40.6 °F 38.8 °F 76% 30.37 in 10.0 mi East 11.5 mph - N/A   Clear
8:15 AM 46.9 °F - 39.2 °F 74% 30.38 in 10.0 mi East 11.5 mph - N/A   Clear
8:35 AM 47.8 °F - 39.0 °F 71% 30.39 in 10.0 mi East 15.0 mph - N/A   Clear
8:55 AM 48.9 °F - 39.2 °F 69% 30.39 in 10.0 mi East 13.8 mph - N/A   Clear
9:35 AM 50.5 °F - 39.4 °F 66% 30.39 in 10.0 mi East 12.7 mph 17.3 mph N/A   Clear
10:15 AM 52.7 °F - 39.2 °F 60% 30.40 in 10.0 mi East 12.7 mph - N/A   Clear
10:55 AM 56.5 °F - 40.3 °F 55% 30.40 in 10.0 mi East 11.5 mph - N/A   Clear
11:15 AM 57.4 °F - 39.7 °F 52% 30.40 in 10.0 mi East 10.4 mph - N/A   Clear
11:35 AM 58.6 °F - 39.7 °F 49% 30.40 in 10.0 mi East 9.2 mph - N/A   Clear
12:15 PM 61.2 °F - 40.5 °F 47% 30.39 in 10.0 mi East 6.9 mph - N/A   Clear
12:35 PM 61.9 °F - 40.5 °F 45% 30.37 in 10.0 mi ENE 4.6 mph - N/A   Clear
1:15 PM 64.6 °F - 41.0 °F 42% 30.35 in 10.0 mi East 4.6 mph - N/A   Clear
1:35 PM 65.8 °F - 41.5 °F 41% 30.34 in 10.0 mi Calm Calm - N/A   Clear
2:15 PM 68.0 °F - 42.4 °F 39% 30.32 in 10.0 mi Calm Calm - N/A   Clear
2:35 PM 68.2 °F - 42.8 °F 40% 30.32 in 10.0 mi Calm Calm - N/A   Clear
2:55 PM 69.1 °F - 43.7 °F 40% 30.31 in 10.0 mi Calm Calm - N/A   Clear
3:15 PM 69.1 °F - 43.0 °F 39% 30.31 in 10.0 mi Calm Calm - N/A   Clear
3:35 PM 70.0 °F - 43.9 °F 39% 30.30 in 10.0 mi SSW 4.6 mph - N/A   Clear
4:15 PM 70.2 °F - 44.1 °F 39% 30.28 in 10.0 mi SSW 5.8 mph - N/A   Clear
4:35 PM 70.9 °F - 45.1 °F 40% 30.27 in 10.0 mi West 4.6 mph - N/A   Clear
5:15 PM 70.7 °F - 45.3 °F 40% 30.26 in 10.0 mi SW 5.8 mph - N/A   Scattered Clouds
6:15 PM 69.3 °F - 46.0 °F 43% 30.26 in 10.0 mi SW 4.6 mph - N/A   Clear
6:35 PM 68.0 °F - 46.6 °F 46% 30.26 in 10.0 mi Calm Calm - N/A   Clear
6:55 PM 67.1 °F - 46.6 °F 48% 30.26 in 10.0 mi Calm Calm - N/A   Clear
7:15 PM 63.5 °F - 48.4 °F 58% 30.26 in 10.0 mi Calm Calm - N/A   Clear
7:35 PM 60.8 °F - 49.1 °F 65% 30.26 in 10.0 mi Calm Calm - N/A   Clear
7:55 PM 61.5 °F - 46.6 °F 58% 30.27 in 10.0 mi Calm Calm - N/A   Clear
8:35 PM 61.3 °F - 44.6 °F 54% 30.28 in 10.0 mi South 4.6 mph - N/A   Clear
8:55 PM 60.4 °F - 44.6 °F 56% 30.28 in 10.0 mi Calm Calm - N/A   Clear
9:15 PM 60.1 °F - 44.8 °F 57% 30.28 in 10.0 mi East 3.5 mph - N/A   Clear
9:35 PM 57.7 °F - 44.8 °F 62% 30.29 in 10.0 mi East 5.8 mph - N/A   Clear
9:55 PM 57.6 °F - 44.1 °F 61% 30.30 in 10.0 mi East 3.5 mph - N/A   Clear
10:15 PM 56.3 °F - 43.9 °F 63% 30.30 in 10.0 mi Calm Calm - N/A   Clear
10:55 PM 54.7 °F - 43.7 °F 66% 30.28 in 10.0 mi East 4.6 mph - N/A   Clear
11:15 PM 54.9 °F - 43.5 °F 66% 30.28 in 10.0 mi East 5.8 mph - N/A   Clear
11:35 PM 55.0 °F - 43.2 °F 64% 30.28 in 10.0 mi ENE 4.6 mph - N/A   Clear